Location: Staunton
(38.1490°N, 79.0720°W)
Time: 01:00:03
(UTC-04:00)

ISS - Pass Details

Date: 20 May 2019
Orbit: 408 x 418 km, 51.6° (Epoch: 27 May)

Event Time Altitude Azimuth Distance (km) Brightness Sun altitude
Rises 22:53:04 0° 283° (WNW) 2,346 0.8 -23.1°
Reaches altitude 10° 22:56:07 10° 314° (NW) 1,488 0.1 -23.5°
Maximum altitude 22:57:42 13° 342° (NNW) 1,335 -0.3 -23.7°
Drops below altitude 10° 22:59:17 10° 10° (N) 1,493 -0.4 -23.8°
Sets 23:02:21 0° 41° (NE) 2,360 0.2 -24.2°
